Voltar ao catálogo

STARLINK-31510

AtivoComunicaçõesVLEO
NORAD 59575·PAYLOAD·🇺🇸 United States

Lançado Apr 23, 2024 de Cape Canaveral Space Force Station

Loading…

Próximas Passagens (próximas 24 horas)

TLE

AtualizadoSource: CelesTrak SupGP

Época: Sep 15, 2026, 03:12 UTC

1 59575C 24076M   26258.13381944  .00019693  00000+0  71305-3 0  2580
2 59575  43.0045  15.7540 0001884 271.0840 125.9135 15.27578694    15

Acompanhe STARLINK-31510 em tempo real com AllMySat

Download on the App Store